WZZ5305 EGGW-EPKT

Flight info

Callsign WZZ5305
Flight time N/A
Altitude 35000
Route MATCH Q295 BRAIN M197 REDFA L620 TACHA DCT ZUCKA DCT GOBAX DCT LASIS T714 MOFKE
Aircraft A21N/M-SDE3FGHIRWY/LB1

Departure

Time 2026-04-27 19:49
Airport London Luton Airport (EGGW)

Arrival

Time N/A
Airport Katowice Wojciech Korfanty International Airport (EPKT)
Time Latitude Longitude Altitude Speed Heading
2026-04-27 19:13 51.87957 -0.37384 519 ft 0 kts 162°
2026-04-27 19:35 51.87959 -0.37386 519 ft 2 kts 161°
2026-04-27 19:35 51.87973 -0.37385 519 ft 2 kts 194°
2026-04-27 19:35 51.87983 -0.37382 519 ft 0 kts 183°
2026-04-27 19:35 51.87993 -0.37383 519 ft 2 kts 155°
2026-04-27 19:36 51.88002 -0.37399 519 ft 2 kts 102°
2026-04-27 19:36 51.88002 -0.37412 519 ft 0 kts 77°
2026-04-27 19:36 51.88001 -0.37417 519 ft 0 kts 67°
2026-04-27 19:36 51.88001 -0.37418 519 ft 0 kts 76°
2026-04-27 19:37 51.88000 -0.37422 519 ft 0 kts 86°
2026-04-27 19:37 51.87997 -0.37432 519 ft 0 kts 75°
2026-04-27 19:38 51.87996 -0.37439 520 ft 2 kts 75°
2026-04-27 19:38 51.87995 -0.37443 520 ft 0 kts 75°
2026-04-27 19:39 51.87996 -0.37441 520 ft 0 kts 75°
2026-04-27 19:40 51.88005 -0.37388 519 ft 6 kts 72°
2026-04-27 19:41 51.88020 -0.37316 519 ft 8 kts 72°
2026-04-27 19:41 51.88033 -0.37254 518 ft 9 kts 71°
2026-04-27 19:41 51.88038 -0.37158 518 ft 9 kts 123°
2026-04-27 19:41 51.87975 -0.37105 518 ft 10 kts 160°
2026-04-27 19:42 51.87907 -0.37064 519 ft 9 kts 160°
2026-04-27 19:42 51.87853 -0.37037 520 ft 11 kts 163°
2026-04-27 19:42 51.87777 -0.36999 520 ft 13 kts 163°
2026-04-27 19:42 51.87684 -0.36952 522 ft 8 kts 164°
2026-04-27 19:43 51.87627 -0.36996 523 ft 10 kts 250°
2026-04-27 19:43 51.87603 -0.37123 523 ft 14 kts 253°
2026-04-27 19:43 51.87581 -0.37320 524 ft 15 kts 267°
2026-04-27 19:43 51.87546 -0.37468 525 ft 13 kts 206°
2026-04-27 19:44 51.87499 -0.37582 525 ft 12 kts 251°
2026-04-27 19:44 51.87476 -0.37708 525 ft 13 kts 255°
2026-04-27 19:44 51.87449 -0.37871 524 ft 14 kts 255°
2026-04-27 19:44 51.87405 -0.38027 523 ft 12 kts 223°
2026-04-27 19:45 51.87365 -0.38066 522 ft 0 kts 205°
2026-04-27 19:47 51.87351 -0.38077 522 ft 10 kts 205°
2026-04-27 19:47 51.87262 -0.38062 522 ft 13 kts 109°
2026-04-27 19:47 51.87264 -0.38000 522 ft 0 kts 76°
2026-04-27 19:48 51.87293 -0.37822 525 ft 48 kts 74°
2026-04-27 19:48 51.87475 -0.36774 524 ft 122 kts 74°
2026-04-27 19:49 51.87982 -0.33680 1095 ft 166 kts 72°
2026-04-27 19:49 51.88236 -0.32235 1720 ft 164 kts 70°
2026-04-27 19:49 51.88580 -0.30274 2516 ft 161 kts 69°
2026-04-27 19:49 51.88935 -0.28277 2867 ft 176 kts 70°
2026-04-27 19:50 51.89216 -0.26686 3120 ft 189 kts 70°
2026-04-27 19:50 51.89533 -0.24832 3399 ft 204 kts 72°
2026-04-27 19:50 51.89518 -0.22046 3683 ft 237 kts 101°
2026-04-27 19:50 51.88663 -0.19602 4025 ft 265 kts 131°
2026-04-27 19:51 51.87454 -0.18247 4422 ft 278 kts 154°
2026-04-27 19:51 51.86042 -0.17508 4796 ft 282 kts 163°
2026-04-27 19:51 51.84903 -0.17027 4948 ft 283 kts 163°
2026-04-27 19:51 51.83774 -0.16514 4983 ft 283 kts 161°
2026-04-27 19:52 51.82679 -0.15944 4977 ft 282 kts 159°
2026-04-27 19:52 51.80972 -0.14909 4986 ft 282 kts 156°
2026-04-27 19:52 51.79521 -0.13934 4993 ft 281 kts 154°
2026-04-27 19:52 51.78153 -0.12971 4987 ft 281 kts 154°
2026-04-27 19:53 51.75571 -0.09813 4973 ft 271 kts 112°
2026-04-27 19:53 51.75149 -0.06959 4997 ft 262 kts 84°
2026-04-27 19:54 51.75244 -0.05460 4998 ft 260 kts 77°
2026-04-27 19:54 51.75540 -0.02639 4988 ft 259 kts 76°
2026-04-27 19:54 51.75825 0.00132 4966 ft 259 kts 77°
2026-04-27 19:54 51.76097 0.03023 4980 ft 259 kts 78°
2026-04-27 19:55 51.76305 0.05385 4987 ft 259 kts 78°
2026-04-27 19:55 51.76508 0.07755 5002 ft 259 kts 78°
2026-04-27 19:55 51.76633 0.09247 4987 ft 259 kts 78°